Temp
9 11 12 14 15 15 15 16 16 16 17 17 17 17 18 18 18 18 18 18 18 17 17 16 16 16 15 14 14 15 17 19 20 18 19 22 23 22 23 23 24 24 23 23 23 23 23 23 23 24 24 24 24 25 26 26 27 26 25 24 22 22 22 22 22 22 21 20 21 22 22 21 20 20 20 20 19 18 17 17 17 17 17 17 17 17 17 17
11 13 14 15 15 15 16 16 16 17 17 18 18 19 19 19 19 18 18 17 17 17 16 16 15 14 13 14 15 17 19 20 20 19 21 24 23 23 23 24 24 24 24 24 24 23 23 24 23 23 24 25 25 26 26 26 27 26 25 24 23 22 22 22 22 22 21 20 21 21 21 22 21 21 21 20 18 18 18 17 17 17 17 17 17 17 17 18
13 14 15 15 15 16 16 16 17 18 19 19 19 19 19 19 19 18 17 16 17 16 15 15 13 13 14 16 17 19 20 20 21 22 24 25 24 23 23 24 24 24 24 24 24 23 23 23 22 23 24 25 25 26 26 26 27 26 25 23 22 23 22 22 22 22 22 21 21 20 21 21 21 21 21 19 18 18 18 18 18 17 17 17 17 17 17 18
14 15 15 16 16 17 17 17 18 19 20 20 20 19 19 19 18 17 16 16 16 15 14 14 14 15 16 17 19 21 20 22 24 24 26 25 24 24 24 24 24 24 24 24 23 23 23 22 22 23 24 25 26 26 26 26 26 26 26 23 22 23 22 23 23 22 22 22 21 20 20 20 20 21 20 20 18 18 18 18 18 17 17 17 17 17 17 18
15 15 16 17 17 17 17 18 19 20 20 20 20 19 19 18 18 17 17 16 15 14 14 15 16 17 18 19 21 21 21 23 24 25 26 26 25 25 25 25 24 24 24 24 23 23 23 22 22 23 24 25 26 26 26 26 26 25 25 24 23 23 23 23 23 22 22 22 21 20 20 19 19 20 20 20 18 18 18 18 18 18 18 18 18 18 18 18
16 16 17 17 17 17 18 19 20 20 20 20 20 19 19 18 17 16 16 16 15 15 16 17 18 19 20 21 21 20 21 24 24 26 26 26 26 25 25 25 25 25 24 24 23 22 23 23 23 24 25 25 26 26 26 26 26 24 23 24 23 24 23 23 23 22 22 21 20 20 20 20 19 19 19 19 18 19 19 19 19 19 19 18 18 18 17 16
16 17 17 17 17 18 19 20 20 20 20 20 19 19 18 18 17 16 16 16 16 17 18 19 20 21 22 21 20 19 21 24 25 26 27 26 27 26 26 25 25 25 24 23 22 22 24 24 24 25 25 25 25 26 26 26 25 24 23 23 23 23 23 22 22 22 21 21 20 20 20 19 19 18 19 18 18 19 20 20 20 19 19 19 18 17 15 15
17 17 17 17 17 19 20 20 20 20 19 19 19 19 18 17 17 16 16 17 19 19 19 20 21 23 22 20 20 21 23 25 27 26 27 27 27 26 26 26 25 25 24 24 23 23 24 24 25 25 26 25 26 26 26 25 25 24 23 23 23 23 22 22 21 21 20 20 20 20 19 19 19 19 18 17 17 19 20 20 20 19 19 18 17 16 15 15
17 17 17 17 19 20 21 20 20 20 19 19 19 19 18 17 16 17 18 19 20 20 20 22 23 23 22 20 20 23 26 27 27 27 27 28 27 27 27 26 26 25 24 24 24 23 24 25 26 27 26 27 27 26 26 25 24 24 23 23 23 22 22 22 21 21 20 20 20 19 19 19 19 19 18 17 16 17 19 20 19 19 18 17 16 16 16 16
17 17 17 18 20 21 21 20 20 20 19 19 19 18 17 17 17 18 19 20 21 20 21 23 22 22 21 19 21 25 27 27 27 28 28 28 28 27 27 27 26 25 24 24 24 23 24 25 27 28 28 28 28 26 26 25 25 24 23 23 22 22 22 22 21 21 21 20 20 19 19 19 20 19 18 18 16 16 19 20 19 19 18 17 16 16 16 15
17 17 18 20 21 21 21 21 20 20 20 19 19 18 17 17 18 19 21 21 21 22 23 22 21 21 18 18 23 27 27 28 27 28 28 28 27 27 28 28 27 25 24 24 24 25 25 25 26 28 28 28 27 26 26 26 25 24 23 22 22 22 22 21 21 21 21 20 20 20 19 19 19 18 17 18 18 18 19 19 19 18 17 17 17 16 16 15
17 18 20 21 21 21 21 21 21 21 20 19 19 18 18 18 19 20 21 21 22 23 23 21 21 20 17 18 24 28 28 28 28 28 28 28 28 28 29 29 28 27 26 25 26 27 28 28 28 28 28 28 26 25 25 26 25 24 23 22 22 22 21 21 21 21 21 20 21 22 20 18 18 17 17 18 19 20 20 18 17 17 17 17 16 16 16 16
18 19 20 21 21 21 21 21 21 21 20 20 19 19 19 19 20 21 22 23 23 23 22 21 21 18 18 23 27 28 29 29 29 28 28 28 28 29 29 29 29 28 28 26 27 29 30 30 30 29 29 28 26 26 25 26 25 23 22 21 21 21 21 22 22 22 21 21 22 23 20 17 18 18 17 18 19 19 18 16 16 16 16 16 15 15 15 15
19 20 21 21 21 21 21 21 21 21 21 20 20 20 20 20 21 22 23 24 23 22 21 21 20 17 19 26 28 29 29 29 29 28 28 29 28 29 29 29 29 29 29 28 29 30 30 31 30 29 29 28 27 26 26 25 24 22 21 19 18 19 20 21 21 21 21 22 23 22 19 17 18 18 17 17 18 18 17 16 16 16 16 15 15 15 14 15
20 20 21 21 21 22 22 21 21 21 21 21 21 21 21 21 22 23 23 23 22 21 21 20 18 18 21 27 28 29 29 28 29 29 29 29 28 28 29 29 30 30 30 29 30 30 30 31 29 28 28 28 27 26 25 24 23 23 21 18 17 19 20 20 20 21 20 21 22 21 19 18 18 18 17 17 17 17 17 17 17 17 17 16 16 15 15 15
20 21 21 21 22 22 22 21 21 21 22 22 22 22 23 23 24 23 23 22 21 21 20 19 18 19 23 27 28 29 29 28 29 29 29 29 29 29 29 30 30 31 30 29 30 30 30 30 28 27 27 27 26 25 24 23 22 23 22 18 17 19 20 20 19 20 20 20 21 21 19 18 18 17 17 17 17 17 17 17 17 17 17 17 17 17 16 16
21 21 21 22 22 22 21 21 21 22 23 23 23 23 24 24 24 23 23 22 20 19 19 19 18 20 24 27 27 28 28 29 29 29 30 30 29 29 29 30 30 30 30 29 30 30 29 28 27 27 26 25 25 25 23 21 21 22 22 20 19 20 20 19 19 20 21 20 20 20 19 17 17 17 17 17 17 17 17 16 17 17 17 17 17 17 17 17
21 21 22 22 22 22 21 21 22 23 23 23 24 24 25 25 24 23 22 22 20 18 19 19 19 21 25 27 27 28 29 29 30 30 30 30 30 30 30 30 29 29 29 29 29 29 28 27 26 27 26 25 26 26 23 21 21 21 21 20 20 20 20 19 20 20 20 20 19 19 18 16 16 17 17 17 17 17 17 17 17 17 18 18 18 18 18 18
21 21 22 22 22 22 21 21 23 24 24 24 24 25 25 24 24 23 21 21 22 23 23 23 23 25 27 28 28 29 30 30 30 30 30 30 30 30 30 30 30 29 28 28 28 28 27 26 26 25 25 25 26 26 24 23 23 21 21 20 20 20 19 19 19 19 20 19 19 19 18 16 16 16 17 17 17 17 17 17 17 17 18 18 18 18 18 18
21 22 22 22 22 21 21 22 23 24 24 25 25 25 26 25 25 24 22 22 24 26 27 26 26 26 28 29 29 29 30 30 30 30 30 30 30 30 30 29 29 28 28 28 27 27 27 26 25 25 25 26 27 26 25 24 23 22 21 20 20 20 19 19 19 19 20 20 18 18 17 16 16 16 16 17 17 17 17 17 17 17 18 18 19 18 18 18
22 22 22 22 22 22 22 23 24 24 25 25 25 25 26 26 26 26 25 25 26 25 26 27 27 26 28 30 30 30 30 30 29 30 30 30 30 29 29 29 28 28 27 27 26 26 26 25 25 26 26 26 27 26 24 23 23 22 21 20 20 19 19 19 19 20 20 20 18 18 17 16 16 16 16 17 18 17 16 17 17 17 18 18 18 18 18 18
22 22 22 22 22 22 23 23 24 25 26 26 25 23 25 27 27 27 27 26 26 26 26 27 27 27 29 30 31 31 30 29 29 29 30 31 30 29 29 28 28 27 27 26 26 25 25 24 25 27 26 26 25 25 24 23 22 22 20 20 19 19 19 19 20 20 20 20 18 18 17 16 16 16 16 17 17 16 16 17 17 16 17 18 18 18 19 19
22 22 22 22 22 23 24 24 25 26 26 26 24 23 25 28 28 28 27 26 26 27 28 28 28 29 30 30 31 31 30 29 29 29 31 31 30 29 28 28 27 26 26 26 26 24 23 24 26 26 26 26 25 24 24 22 21 21 20 20 19 19 19 19 19 19 20 19 18 17 17 17 17 17 17 17 17 16 16 16 16 16 17 17 18 18 19 19
22 22 22 22 23 24 24 25 26 26 25 25 25 26 27 28 28 28 27 26 26 27 28 29 30 30 30 30 31 30 29 29 29 29 31 30 29 29 28 28 27 26 26 26 26 25 24 25 26 26 26 26 25 24 24 22 21 21 21 20 19 19 19 19 19 19 19 18 18 18 18 18 18 18 17 17 16 16 16 16 16 16 16 16 17 18 19 19
22 22 22 23 23 25 25 26 26 25 25 26 26 27 27 27 28 27 27 26 25 27 29 29 29 30 30 30 30 30 29 29 29 30 30 30 29 29 28 29 28 26 26 26 26 26 25 26 26 26 25 25 25 24 23 23 21 21 21 21 20 20 19 19 19 18 17 17 19 19 19 18 18 17 17 16 17 16 16 17 17 17 16 17 18 18 18 18
22 22 22 23 23 25 26 26 26 25 26 26 26 26 27 27 27 27 27 24 23 26 29 29 29 29 30 30 30 30 28 29 30 30 30 30 30 29 28 28 28 26 26 27 26 26 26 26 26 25 25 25 24 23 23 23 22 21 21 21 20 20 19 19 19 19 18 18 19 20 19 18 17 18 18 17 17 17 16 17 17 17 17 17 18 18 18 18
22 22 22 23 23 25 26 25 24 25 25 25 25 26 27 28 27 27 26 22 22 26 28 28 29 29 30 30 30 29 27 28 30 30 30 30 30 30 28 28 28 27 27 27 24 25 26 26 25 25 24 24 23 23 23 23 22 21 21 21 20 20 19 19 20 20 19 19 19 19 19 18 17 18 18 17 16 17 17 17 17 17 17 17 18 18 18 18
22 22 22 23 23 23 24 24 23 24 24 25 26 27 27 28 27 27 24 20 22 26 27 28 29 29 29 29 30 30 28 28 29 29 30 30 30 29 28 28 27 27 28 26 23 24 26 26 25 25 24 23 23 23 23 23 22 21 22 22 21 20 20 20 20 20 20 20 19 19 19 18 17 18 18 16 16 17 17 18 18 18 17 17 18 18 18 18
22 22 22 22 23 23 24 24 24 24 25 26 26 27 28 27 27 26 22 20 24 27 27 28 29 29 29 29 29 30 29 29 29 29 30 30 30 29 28 27 27 26 26 26 25 25 27 26 25 25 23 23 23 23 24 24 23 22 23 23 22 21 21 21 21 20 20 20 19 19 19 19 18 17 17 16 16 17 17 18 18 18 17 17 18 18 18 18
22 22 22 23 23 24 24 25 25 25 25 26 26 27 28 27 25 23 20 21 24 26 28 28 29 29 29 29 28 29 29 29 29 30 30 30 29 29 28 28 27 26 26 26 26 26 27 27 26 25 24 24 24 24 24 24 23 23 23 22 22 22 21 21 20 20 20 19 20 19 19 19 18 18 17 17 17 18 18 18 18 18 18 18 18 18 18 18
22 22 22 23 23 24 24 25 26 26 26 26 26 27 27 25 24 21 21 24 25 26 28 28 29 29 28 28 28 28 29 29 29 29 29 29 28 27 27 27 26 25 24 25 25 26 26 26 26 26 25 25 24 24 24 24 24 23 23 22 21 21 21 21 20 20 20 19 20 20 19 19 19 19 18 18 19 19 18 19 19 19 18 18 18 18 18 18
22 23 23 23 23 24 24 25 26 26 26 26 25 26 26 23 21 20 22 24 24 25 27 27 29 29 28 28 28 28 28 28 28 28 27 27 26 26 26 25 25 23 21 22 23 24 25 25 26 26 26 25 24 23 23 23 23 23 22 21 20 20 20 20 19 19 20 19 20 20 20 20 20 19 19 19 19 19 19 19 20 19 19 18 18 18 18 18
22 23 23 23 24 24 25 26 26 26 25 25 25 26 24 22 21 21 23 24 24 26 28 28 29 29 28 28 27 28 28 27 28 27 27 26 25 26 25 25 26 24 22 22 22 22 23 24 26 26 25 25 24 22 22 22 22 21 21 21 20 20 19 19 19 19 19 20 20 20 20 20 19 19 19 20 20 20 20 20 20 20 19 18 19 19 18 18
23 23 24 24 24 25 26 26 26 26 25 25 25 25 23 21 21 22 23 24 26 27 28 28 28 28 28 27 27 27 27 26 27 26 26 26 25 25 25 25 26 25 24 23 22 21 21 22 25 25 25 25 25 24 23 23 22 21 22 22 21 20 20 20 19 19 19 20 20 20 20 19 19 20 20 20 20 20 20 20 20 20 20 19 19 19 18 18
23 23 24 24 25 26 26 26 26 26 24 24 25 23 21 20 21 22 23 26 27 28 27 28 28 27 26 27 27 27 26 25 26 26 25 24 24 24 25 25 25 26 24 22 21 22 21 21 25 26 26 26 26 25 25 24 22 22 23 22 21 22 21 20 19 19 19 19 19 19 19 19 19 20 20 20 20 21 21 20 20 20 20 19 19 18 18 18
23 23 24 24 25 26 27 26 26 25 24 24 24 22 21 22 23 24 25 27 27 27 27 26 27 25 24 25 27 27 27 26 26 25 24 24 24 24 24 25 26 26 25 23 22 22 21 21 25 26 26 27 27 26 27 25 23 23 22 22 22 23 22 20 19 19 19 19 19 18 18 19 19 20 20 19 20 21 21 20 20 19 19 19 18 18 18 18
23 23 23 24 25 27 27 26 26 25 24 24 23 22 23 24 25 25 27 28 27 27 26 24 25 24 23 23 25 26 27 26 25 25 23 23 23 23 24 25 26 26 25 25 23 23 22 22 25 26 26 27 27 27 27 26 25 23 22 23 24 23 22 21 20 19 19 19 18 18 18 18 18 19 19 19 20 21 20 20 19 19 19 19 18 18 18 17
22 22 22 24 26 27 26 26 25 24 24 24 22 22 24 25 26 26 27 28 27 27 26 23 24 25 24 23 23 25 26 24 24 24 22 22 23 23 24 25 26 25 25 25 24 24 23 21 23 26 25 26 27 26 25 25 25 24 23 24 23 21 21 21 20 20 19 18 18 18 18 18 19 19 19 19 20 21 20 20 19 19 19 18 18 18 17 17
22 22 22 25 27 27 26 26 25 24 24 23 22 23 24 25 27 27 27 27 27 27 26 24 25 25 25 24 23 25 25 24 23 23 22 22 22 23 24 24 25 25 24 25 24 24 23 21 22 25 25 25 25 24 23 23 25 25 24 25 23 22 21 21 20 20 19 19 18 18 18 19 20 20 19 19 20 21 21 20 20 19 19 18 18 17 17 17
21 21 23 26 27 26 26 26 25 24 24 23 22 23 25 26 27 27 27 28 27 27 26 26 26 25 25 25 25 25 25 24 24 23 22 22 22 23 24 24 25 25 25 25 23 23 23 22 21 23 24 23 23 23 22 23 23 23 23 22 22 22 22 21 21 20 20 19 18 18 18 19 21 20 20 20 20 20 21 21 20 19 19 18 18 17 17 17
21 22 24 26 26 26 26 25 24 23 23 23 23 24 25 26 27 28 28 28 27 27 27 26 26 25 25 25 25 25 25 24 24 23 22 22 22 23 24 24 25 25 25 25 23 23 23 22 21 22 22 22 22 24 24 23 24 23 22 22 21 21 21 21 20 20 20 20 19 18 18 19 21 21 20 21 20 20 21 21 19 19 19 19 18 18 17 17
21 22 24 25 26 26 25 24 23 23 23 24 24 25 26 27 28 28 28 28 28 27 27 27 27 26 26 26 25 26 25 24 24 23 23 23 23 23 24 25 25 24 24 24 23 23 23 23 21 21 21 22 23 24 24 23 24 24 23 22 22 22 21 20 20 20 20 19 19 19 19 20 22 21 21 21 21 20 20 20 19 19 19 19 19 18 18 18
22 23 24 25 26 26 25 24 23 23 24 25 25 26 27 28 28 28 27 28 28 27 27 27 27 26 26 26 26 26 25 24 23 23 23 23 24 24 24 25 25 24 24 23 23 23 23 22 21 21 22 23 24 25 25 24 24 23 22 22 22 22 21 21 20 20 20 19 19 19 19 20 21 20 21 21 21 20 19 19 19 19 19 19 19 18 18 18
22 22 24 25 26 26 24 24 24 24 24 25 25 26 27 27 27 27 27 27 27 27 27 27 27 27 27 27 26 26 25 23 23 24 24 24 24 24 24 25 25 24 24 24 23 23 22 21 21 20 20 21 22 23 23 23 23 23 22 22 22 22 22 21 20 20 20 19 19 19 19 20 20 20 20 21 21 20 19 19 19 19 19 19 18 18 18 18
22 22 23 25 25 25 24 23 24 24 24 24 24 26 27 27 27 27 27 26 26 27 26 27 27 26 27 27 26 25 25 24 23 24 24 24 24 25 24 25 25 24 24 24 23 24 23 21 21 21 20 20 20 20 21 21 22 22 22 22 22 22 22 21 20 20 20 19 19 20 19 20 20 20 20 21 21 20 19 19 19 19 19 18 18 18 18 18
22 22 23 24 24 24 24 23 23 24 24 24 25 26 27 27 27 27 27 27 26 27 26 26 27 27 26 26 25 24 25 25 24 24 24 24 25 25 25 25 25 24 24 24 24 24 23 22 22 22 21 20 20 21 21 21 21 21 21 22 21 21 21 21 20 20 20 20 20 20 20 20 20 20 20 20 20 20 20 19 19 19 18 18 18 18 18 18
22 22 23 23 23 23 23 23 23 24 24 24 25 26 26 26 27 27 27 27 27 27 26 25 25 26 25 26 25 24 24 25 25 24 24 24 25 25 25 25 25 25 25 25 24 25 23 21 22 22 22 21 22 22 22 22 22 21 21 21 22 22 22 21 20 20 19 19 20 19 20 20 19 20 21 20 20 20 20 20 20 20 19 18 18 18 18 18
22 23 23 23 24 24 23 24 24 24 24 24 25 26 26 26 26 26 27 27 27 27 26 25 24 24 25 25 25 24 24 24 24 24 24 24 24 24 25 25 25 25 25 25 24 24 23 21 21 22 22 22 23 23 23 23 23 22 22 22 22 22 22 21 21 20 20 20 20 19 20 20 20 20 21 22 22 22 21 21 21 20 19 18 18 19 19 18
22 22 22 22 23 24 24 24 24 24 24 25 26 26 26 27 27 26 27 27 26 26 26 24 24 24 25 26 25 24 24 23 23 23 24 24 24 24 24 24 25 24 25 25 24 23 23 22 22 23 22 22 23 23 23 23 23 22 22 22 22 22 22 22 21 21 21 20 20 20 20 20 21 21 22 22 22 21 21 20 20 20 20 19 18 18 18 18
21 22 22 22 23 24 25 24 24 24 25 25 26 26 25 27 27 26 27 27 26 26 25 25 25 25 25 25 25 24 24 24 24 24 24 24 24 24 24 24 25 25 25 25 24 23 23 22 22 23 22 21 23 23 23 22 22 22 21 21 21 21 21 21 21 21 20 19 19 20 20 20 21 21 21 20 20 21 21 20 20 20 20 19 19 18 19 18
20 21 20 21 23 24 25 25 24 25 25 25 26 25 26 27 27 26 27 27 26 26 26 25 25 25 25 25 25 24 24 25 25 26 26 25 25 25 25 25 25 25 25 25 24 24 23 22 21 22 21 20 22 23 22 22 22 21 21 21 21 21 21 21 21 21 21 20 19 20 20 20 20 20 20 20 21 21 21 20 20 19 19 19 19 19 19 18
20 21 20 21 22 23 25 26 25 25 26 26 26 26 26 26 27 27 26 26 26 26 26 25 25 25 24 25 25 25 25 25 26 26 26 26 26 26 26 25 25 25 25 24 24 23 23 23 21 21 20 20 21 22 21 22 21 20 21 22 21 21 21 21 21 21 21 21 20 20 20 20 20 20 20 20 20 21 20 20 19 19 18 18 18 18 18 18
Height
798 798 797 796 796 796 796 796 796 795 794 793 793 792 792 792 791 790 790 790 790 790 791 791 791 791 789 788 786 785 783 783 782 781 779 776 774 775 775 776 776 776 776 776 776 776 776 776 777 777 779 781 782 783 782 783 784 791 801 810 819 821 821 818 815 818 823 823 815 810 813 814 815 812 805 805 809 814 818 819 821 822 822 823 822 823 824 825
798 797 796 796 796 796 796 796 795 794 793 792 792 791 791 791 790 791 791 792 792 792 792 791 790 790 788 787 785 783 783 781 780 778 776 774 774 775 775 775 776 776 776 776 776 776 776 777 778 779 781 783 783 782 785 784 785 794 802 810 817 818 816 813 811 812 818 822 815 813 817 814 812 812 804 810 823 820 821 828 827 827 828 826 825 824 824 825
797 796 796 796 796 795 796 795 794 793 792 792 791 791 791 792 792 792 793 794 793 793 791 790 789 788 787 786 784 783 782 779 778 777 774 773 774 775 775 775 775 776 776 776 776 776 777 778 780 782 783 786 784 784 788 786 787 792 801 816 817 811 812 810 810 812 816 816 815 821 819 814 812 810 808 815 826 825 826 831 829 832 832 829 827 825 826 826
796 796 796 796 795 795 795 794 793 792 792 792 792 792 793 793 793 794 794 793 792 791 789 788 788 786 786 785 783 783 780 780 780 776 774 774 774 774 775 775 775 776 776 776 777 777 777 778 780 782 785 788 786 787 790 787 789 792 798 814 814 807 810 809 810 813 814 813 817 824 818 817 816 811 813 815 824 832 830 827 828 832 831 830 829 828 828 828
796 795 795 795 795 794 794 793 793 793 793 792 792 793 793 793 793 793 792 791 789 788 788 787 787 786 786 784 783 781 780 788 785 775 774 774 774 774 774 774 775 775 775 776 777 778 779 779 780 783 786 788 788 790 790 786 787 796 800 805 807 805 810 810 808 811 813 813 818 821 819 820 817 817 820 815 824 835 830 826 827 828 830 830 830 830 831 830
795 795 794 794 794 794 793 793 793 793 793 792 793 792 792 793 792 792 789 788 787 787 787 787 787 786 785 783 782 779 782 790 783 773 775 773 773 773 773 774 774 774 775 776 776 778 779 779 782 785 786 787 789 789 788 785 787 802 807 803 804 803 807 811 809 812 814 813 818 820 819 819 818 824 825 819 825 829 824 825 826 828 830 830 832 834 836 838
795 794 794 794 793 794 793 794 794 793 793 792 792 792 792 791 790 788 786 786 786 786 787 787 787 785 784 782 781 780 783 784 776 773 774 771 772 772 772 772 772 774 773 774 775 777 778 778 782 783 786 789 788 786 787 788 788 800 810 805 804 803 806 810 810 814 814 816 819 817 819 822 823 827 828 825 827 825 823 826 827 829 831 831 834 836 838 841
794 794 794 793 793 794 794 794 794 793 793 792 792 791 790 789 787 786 785 785 786 786 787 786 786 784 783 782 781 783 783 778 772 772 772 770 771 770 771 771 770 772 770 771 772 775 777 778 780 779 786 788 784 785 786 791 795 800 808 808 805 806 807 810 812 815 817 820 820 818 824 828 825 826 830 832 830 826 825 827 828 830 832 832 834 835 835 836
793 794 793 793 794 794 794 793 793 793 792 791 790 789 787 786 784 784 784 785 786 787 787 786 786 784 783 782 782 786 781 773 770 771 770 770 770 768 769 768 769 770 769 769 769 773 777 776 776 773 779 780 778 785 784 792 804 802 805 807 809 811 811 812 815 817 819 821 818 820 830 830 824 824 832 837 837 834 827 828 831 831 834 835 836 838 837 837
793 793 793 794 793 793 793 792 792 791 791 790 788 787 785 784 783 783 784 785 786 786 786 785 785 783 783 781 784 788 777 769 771 770 769 769 768 768 767 767 768 768 767 768 767 771 772 770 768 765 770 773 775 785 784 789 799 799 801 806 811 814 813 815 818 818 820 822 817 821 833 832 824 827 838 840 840 838 830 830 833 834 837 838 839 840 839 839
792 792 793 794 793 793 792 791 791 790 789 788 786 784 782 782 782 783 784 785 785 785 784 784 783 783 783 783 786 784 773 769 770 769 769 769 767 767 765 765 766 766 767 765 766 767 766 765 763 763 770 773 776 786 787 787 793 798 804 812 816 816 818 819 820 820 820 825 821 818 830 834 831 836 842 839 836 835 831 833 836 836 839 840 840 840 840 841
792 792 793 793 792 792 791 790 789 789 788 786 784 782 781 782 783 783 784 784 783 783 783 783 784 782 782 784 783 777 770 769 769 768 769 767 766 766 764 764 763 764 765 764 762 761 763 762 759 765 773 774 782 793 794 789 791 800 809 822 826 822 825 824 822 822 820 825 821 815 832 844 843 845 843 838 834 832 834 839 842 841 841 842 843 842 843 844
792 793 793 792 792 791 790 789 788 788 786 784 782 781 782 783 783 784 783 783 783 783 784 783 782 781 782 783 777 770 769 769 768 768 768 766 765 764 763 764 762 762 763 763 761 759 761 759 757 765 767 772 784 790 794 794 796 808 816 827 834 834 836 829 824 826 823 824 816 817 845 858 850 845 842 839 836 835 840 845 846 847 846 846 846 846 846 846
792 792 792 791 791 790 789 789 788 787 784 782 781 781 783 784 784 783 782 782 782 783 783 782 782 781 782 780 772 770 770 769 769 768 766 766 765 764 763 762 762 761 761 762 760 759 761 757 757 763 764 771 780 783 792 801 806 814 823 834 846 849 845 833 827 830 830 827 816 822 852 861 850 846 843 841 838 837 844 845 845 847 848 850 850 849 849 848
792 792 791 791 790 790 789 788 787 785 781 780 780 783 783 783 783 781 781 782 782 783 782 782 782 781 783 779 770 770 770 770 769 765 765 766 765 764 762 761 761 760 760 763 762 760 760 758 762 771 773 772 778 789 799 805 808 811 826 850 858 853 846 837 831 832 835 832 821 828 853 859 850 848 845 843 841 840 844 846 845 846 846 849 850 850 850 849
791 791 790 791 790 789 789 788 786 782 779 779 781 783 783 782 781 781 781 780 781 782 781 782 781 781 786 780 770 769 770 768 765 763 765 765 764 764 762 762 761 760 762 763 762 760 760 762 767 774 778 779 785 797 805 812 815 810 824 850 855 849 848 844 837 832 832 833 827 829 847 856 851 849 847 844 843 843 845 847 847 848 847 847 848 848 849 850
791 790 790 790 790 789 788 787 784 780 779 781 781 782 781 781 780 780 780 779 781 781 781 783 781 782 782 775 772 772 766 765 764 763 764 763 763 763 762 762 761 761 763 762 762 762 763 768 774 778 781 788 792 795 810 826 828 821 825 839 842 841 847 849 844 834 828 835 837 833 843 856 854 851 849 846 845 845 847 849 848 849 848 847 849 850 850 850
790 790 790 790 789 789 788 785 781 779 780 781 781 781 781 780 780 780 779 779 780 780 782 782 782 788 787 775 772 770 762 763 763 761 762 762 761 761 761 762 762 763 766 768 767 767 772 775 779 785 787 792 793 795 811 823 823 825 829 834 838 839 844 848 844 836 831 838 843 841 848 858 857 853 852 850 848 848 848 849 849 849 849 849 850 852 852 851
790 790 790 789 789 788 787 783 780 780 781 781 781 780 779 778 778 778 779 780 781 782 784 782 781 788 785 772 765 763 760 761 762 761 761 760 760 761 760 761 762 766 774 780 778 774 778 783 787 793 794 793 793 794 802 806 809 819 825 829 837 841 845 845 840 836 834 841 849 848 853 859 858 856 854 851 850 850 850 851 851 851 850 851 852 853 854 853
790 790 789 789 789 787 785 782 780 781 781 781 780 779 780 782 783 783 780 778 778 777 777 776 775 777 774 765 761 762 761 761 762 761 761 761 760 761 762 762 767 772 778 784 784 779 780 792 797 797 796 792 790 792 796 800 805 814 823 830 835 841 847 845 841 837 831 841 854 853 855 859 858 858 855 852 850 851 853 852 852 851 851 852 852 854 855 854
790 790 789 789 788 786 784 781 781 781 781 781 779 781 783 784 788 788 781 776 770 768 771 768 766 770 768 762 760 760 762 764 763 760 761 761 760 766 768 768 777 783 781 782 785 782 784 798 800 792 791 789 788 792 797 803 807 814 824 832 838 842 846 843 840 837 832 841 855 854 855 860 860 859 856 852 851 853 854 852 852 852 852 852 853 855 854 853
790 790 789 788 786 785 783 781 782 782 781 780 779 781 780 778 780 779 777 781 772 763 767 765 763 766 761 758 758 758 764 770 769 763 760 759 762 770 773 772 781 786 783 784 789 792 796 800 796 788 787 789 792 795 799 806 811 818 825 833 843 845 845 846 842 838 835 842 855 856 858 863 861 859 858 855 854 856 855 852 853 855 855 855 854 853 852 852
790 789 788 788 785 783 782 781 781 781 780 779 778 780 779 776 775 772 775 784 779 765 764 765 765 765 761 759 758 758 767 773 774 767 758 759 765 769 773 777 782 786 788 789 792 800 805 800 790 785 785 790 797 798 801 810 815 821 826 835 846 843 842 851 850 843 839 843 853 857 859 862 860 858 858 858 857 857 856 854 855 856 857 857 855 853 853 854
789 788 788 787 784 782 781 781 781 780 779 777 778 778 778 776 774 773 774 783 785 772 763 762 761 762 763 760 757 761 769 769 770 768 758 761 767 767 772 776 782 789 791 790 791 798 802 794 785 785 788 792 799 802 804 813 821 823 824 830 841 840 839 846 848 846 847 850 850 851 859 863 860 860 860 858 858 859 859 857 857 859 860 858 856 855 855 855
788 788 788 785 783 781 780 781 780 780 778 777 779 779 778 776 773 772 776 788 793 777 764 762 760 761 758 758 759 760 766 767 766 764 758 760 766 769 773 772 780 793 793 789 791 796 797 790 785 790 794 795 800 806 807 812 820 824 823 824 830 836 839 843 846 850 861 866 852 847 863 869 862 861 862 860 860 860 860 857 857 860 860 858 857 856 856 856
788 788 787 785 783 779 779 780 780 779 778 778 780 778 777 775 773 772 779 799 802 784 773 769 767 765 759 760 759 759 773 775 762 758 758 759 760 765 775 776 779 790 790 786 790 795 796 790 789 794 797 799 803 808 809 809 818 828 825 822 826 832 839 845 846 851 864 867 850 844 860 870 867 862 861 862 862 861 860 859 858 859 859 858 857 857 857 857
788 788 786 785 783 781 781 782 782 781 780 781 778 777 775 773 773 771 785 816 813 787 779 773 768 767 762 760 758 766 786 780 762 759 757 759 759 761 776 782 781 785 781 784 797 800 795 794 796 797 800 805 808 811 810 806 818 829 823 820 828 834 839 843 842 845 851 852 849 847 853 866 872 864 859 862 864 864 863 861 860 859 859 858 856 856 856 857
788 787 787 785 784 784 783 783 783 781 782 782 776 776 774 772 773 773 797 830 815 783 779 773 764 762 760 759 759 768 778 772 773 771 755 757 762 764 779 784 783 786 779 786 806 804 794 797 801 801 805 812 811 810 806 804 817 824 817 818 826 830 835 838 838 842 844 848 857 855 851 866 876 865 860 864 866 866 863 860 859 857 858 858 856 856 857 857
788 787 787 786 785 785 783 783 783 781 781 779 776 775 772 771 772 780 809 828 804 780 777 771 766 765 762 764 766 768 768 768 776 772 756 760 763 764 779 781 780 788 784 786 800 799 793 794 796 799 807 811 808 805 802 804 814 816 813 817 821 827 833 834 838 843 845 853 861 858 852 865 877 869 865 870 870 867 862 857 856 854 856 857 856 857 858 858
787 787 787 786 785 784 784 783 782 782 781 777 777 774 770 773 780 802 827 821 797 783 775 771 771 770 769 774 776 773 771 772 771 766 765 768 766 766 773 775 778 789 792 790 794 795 791 789 790 795 802 804 802 803 802 804 809 810 814 822 826 830 832 834 840 843 852 862 858 853 853 860 871 871 867 868 863 859 859 858 855 853 855 857 857 858 858 859
787 786 786 786 786 785 784 783 781 782 780 777 777 771 773 784 797 822 829 805 792 788 777 775 775 770 773 781 783 778 775 776 771 773 777 776 778 779 780 783 788 797 803 801 799 798 795 794 795 794 795 797 802 806 806 805 807 810 819 827 834 841 840 842 847 846 859 868 853 847 851 854 864 866 860 857 851 849 853 854 851 851 854 856 857 858 858 859
786 786 786 785 785 784 784 783 781 781 779 778 777 774 783 801 812 823 815 795 796 793 781 781 777 773 777 779 783 782 779 781 777 779 785 787 791 791 793 798 798 808 820 816 810 808 803 802 800 797 795 796 805 815 817 814 813 818 825 831 842 855 857 859 861 858 862 862 848 844 848 853 859 855 850 850 848 846 847 846 845 847 852 855 855 857 858 859
786 786 786 785 785 784 783 783 782 782 780 778 778 780 794 815 820 815 805 797 796 787 777 779 776 775 779 781 785 782 782 786 783 783 786 789 795 795 795 796 794 805 818 817 817 819 815 808 800 801 802 797 803 818 826 825 822 825 828 831 842 857 866 871 872 869 865 857 847 842 845 856 859 850 845 845 844 843 841 841 842 844 849 853 853 856 858 858
786 785 786 784 784 783 782 783 782 782 781 778 782 791 806 821 817 806 802 796 786 779 777 779 777 778 782 785 786 782 786 791 786 787 791 792 799 801 798 796 793 798 805 812 819 821 825 823 808 803 805 800 801 808 813 816 820 824 820 822 833 839 848 860 863 863 863 858 850 845 850 862 863 851 843 840 839 839 839 840 841 843 847 851 852 855 857 858
786 786 785 784 783 782 782 783 782 782 783 781 789 804 816 821 813 805 800 789 782 782 780 778 779 786 789 787 785 781 786 794 790 791 798 801 807 807 803 800 796 796 803 816 820 816 825 826 807 798 798 796 800 800 797 808 821 820 814 821 828 821 826 847 856 855 856 860 859 858 861 861 855 847 842 841 841 839 840 841 842 844 846 848 853 855 856 858
786 785 785 784 782 781 782 783 783 783 783 786 800 812 814 810 804 799 791 783 783 785 784 785 785 793 798 792 788 784 783 790 793 796 803 806 808 808 804 800 796 796 801 811 817 817 825 823 803 797 798 793 796 796 793 805 816 816 817 822 817 808 816 839 856 855 853 863 869 866 866 862 855 851 846 846 845 840 842 845 844 845 846 849 853 855 856 858
786 785 785 783 780 781 782 783 783 783 784 792 806 811 805 798 792 788 783 779 782 781 787 797 794 795 801 798 796 792 787 791 795 801 810 811 810 809 805 800 795 796 797 802 809 811 819 822 807 800 803 795 790 793 794 797 802 812 820 814 807 810 814 826 850 859 859 871 874 867 869 868 866 864 853 849 849 844 845 847 846 848 848 850 854 854 856 857
786 786 785 781 779 780 781 783 783 784 787 798 810 808 800 794 786 782 779 778 780 781 789 801 797 793 798 802 803 796 792 800 803 805 813 816 814 809 806 802 796 795 795 795 802 805 810 823 816 802 804 800 791 796 804 800 796 803 809 803 806 822 825 826 843 854 862 876 876 870 870 868 865 863 855 853 851 845 846 847 848 850 849 851 853 854 856 857
787 789 786 779 778 779 781 783 783 786 794 804 813 808 797 791 783 778 777 777 781 785 792 798 795 793 795 799 804 800 797 804 807 809 815 819 817 808 803 804 799 796 795 793 801 805 806 822 826 809 802 804 802 808 818 815 803 800 802 803 808 818 824 828 833 840 854 872 877 875 875 866 855 851 850 850 847 844 845 845 846 848 848 849 852 854 855 855
787 791 787 778 777 780 780 782 785 792 800 805 808 802 793 789 783 776 774 776 780 785 791 795 793 795 797 796 798 799 800 805 806 811 817 818 817 809 802 802 801 798 796 794 801 806 807 819 828 817 807 812 817 817 820 819 814 811 813 817 818 817 819 824 828 833 843 859 870 878 880 864 843 838 842 842 842 841 841 841 845 847 847 848 850 852 853 853
788 793 788 777 778 780 780 786 792 797 801 802 801 797 791 786 781 777 775 774 778 781 784 789 791 794 797 797 797 797 802 808 808 812 817 815 817 815 804 799 800 799 798 800 804 807 811 818 826 825 820 823 822 814 811 813 813 816 820 823 824 822 823 832 839 837 837 849 860 868 875 861 836 832 835 835 837 839 837 840 845 847 846 847 848 849 849 850
791 795 787 778 780 780 782 793 798 797 799 798 796 792 787 782 780 780 777 776 779 780 780 785 789 792 794 795 797 797 802 809 811 813 816 813 813 812 803 797 798 798 800 807 809 806 809 816 824 829 826 823 819 811 810 811 809 812 817 820 822 823 826 836 844 841 842 852 854 857 866 856 834 829 832 831 834 836 837 840 844 845 844 844 846 847 846 846
793 792 784 780 781 779 787 800 801 798 798 793 790 787 782 780 781 782 781 781 782 783 784 787 788 790 791 792 795 797 802 809 812 811 813 812 808 804 800 796 797 799 802 809 811 805 808 820 828 831 827 819 813 809 808 809 810 815 820 819 820 823 825 830 835 837 844 853 852 856 867 855 834 830 831 830 834 836 837 839 841 844 844 843 845 845 844 844
791 789 783 782 781 781 792 802 801 800 797 792 791 787 781 779 781 783 785 785 785 786 789 790 789 789 789 789 792 796 800 810 814 810 808 811 808 801 799 796 797 800 802 806 808 805 814 827 831 837 842 838 831 828 823 819 818 822 824 821 819 821 821 826 832 834 844 853 851 855 865 855 838 834 832 831 835 838 838 837 837 840 842 842 843 842 842 844
790 790 786 783 780 783 792 797 797 800 799 796 795 789 784 783 782 782 784 786 785 786 790 791 788 788 789 789 794 797 798 805 812 810 807 809 806 801 799 798 797 800 801 802 802 802 814 827 827 836 851 854 852 848 840 832 828 827 827 824 823 823 822 827 835 838 846 853 849 850 857 851 840 838 836 834 836 838 838 838 837 837 839 841 841 841 842 843
792 795 793 789 785 786 790 790 792 797 798 798 797 790 788 790 786 780 782 786 786 785 790 791 788 789 793 794 800 804 802 802 807 809 809 810 807 803 800 799 799 800 800 800 799 802 815 825 824 828 837 841 841 838 832 830 831 833 832 828 827 828 827 830 838 843 847 849 850 849 848 848 846 843 840 839 838 838 838 839 839 838 839 840 840 840 841 840
794 796 795 794 793 792 793 792 792 795 795 796 796 791 791 793 790 786 784 786 787 786 790 795 792 795 799 798 803 808 807 805 806 809 811 810 807 804 801 800 801 800 799 799 800 805 817 827 826 825 828 829 828 826 825 826 829 832 833 831 829 828 828 830 836 842 845 849 854 851 843 847 850 844 839 840 839 837 837 837 836 837 837 838 838 839 839 838
793 793 790 789 792 795 795 792 791 792 793 794 792 791 793 793 793 794 790 787 787 787 793 801 800 800 800 798 803 810 811 811 813 813 812 810 809 809 806 804 802 801 800 803 803 806 818 828 827 825 827 826 824 823 822 823 826 828 829 830 830 828 828 830 835 839 840 843 851 849 843 846 848 842 837 836 834 833 835 834 833 834 836 837 837 837 837 838
790 791 787 785 788 791 789 787 787 790 792 792 791 792 794 794 793 793 791 791 793 792 795 805 806 801 799 798 802 810 812 815 818 815 811 811 813 813 814 811 806 803 803 805 806 809 818 825 825 824 827 827 823 822 822 822 825 827 829 830 830 829 829 830 833 836 836 839 845 845 844 844 841 837 835 833 832 833 834 834 833 832 834 836 836 837 837 838
790 792 790 789 789 786 785 786 787 790 791 790 792 793 792 792 793 792 789 791 799 798 796 803 805 801 801 800 802 808 809 808 812 811 809 812 813 812 814 814 809 806 806 807 809 811 816 825 826 823 828 831 825 822 824 826 826 829 832 834 832 832 833 833 834 836 838 846 847 844 845 845 838 835 835 834 834 834 834 834 834 833 833 833 836 838 838 839
789 789 789 792 793 787 784 785 786 790 791 790 792 793 791 791 791 791 789 788 792 796 796 800 803 801 803 803 804 807 805 802 804 803 801 805 806 805 807 808 807 809 809 809 811 811 815 825 827 826 834 836 827 824 828 827 826 832 835 834 832 832 833 833 833 832 836 844 847 846 847 845 838 835 836 835 834 834 835 835 835 835 834 834 836 838 839 839
787 786 786 791 794 789 785 785 786 790 791 789 789 788 789 790 786 788 794 792 788 790 793 796 799 802 806 807 806 803 801 799 799 798 796 797 798 798 800 802 803 806 809 811 813 815 817 822 827 832 839 838 829 829 830 829 835 842 837 831 832 832 832 833 832 831 831 835 840 843 843 840 836 835 836 837 836 835 836 836 836 837 836 836 838 838 839 840
Wind_Speed
10 9 7 6 6 6 6 7 8 8 8 9 9 10 11 10 11 11 12 12 10 9 8 8 7 5 5 5 6 7 8 6 5 7 6 5 5 7 6 2 1 3 5 5 5 4 6 5 7 6 2 1 1 2 1 1 2 3 1 3 3 2 1 2 3 5 3 2 3 5 5 3 11 6 7 13 18 16 16 15 11 11 10 9 12 14 14 13
9 7 5 5 5 5 6 7 8 8 9 9 10 11 11 11 11 11 13 13 11 9 8 7 6 5 5 4 5 6 8 8 7 7 7 4 4 6 6 3 1 3 5 4 4 4 5 5 9 11 2 2 1 2 1 1 3 3 1 4 3 2 1 2 4 5 3 3 4 7 5 1 8 4 5 13 13 13 17 12 10 12 9 8 10 13 13 13
7 5 4 5 5 5 6 7 8 9 10 10 10 11 12 11 12 13 15 15 11 8 7 7 6 4 2 2 3 5 8 7 5 5 4 1 5 6 7 6 6 6 6 4 4 4 3 5 6 7 2 2 3 2 2 2 2 3 3 5 2 4 4 3 6 5 2 6 9 3 1 7 9 4 7 15 14 12 13 9 9 11 9 7 7 10 12 11
5 4 4 4 4 5 6 7 9 10 10 11 12 12 13 13 15 16 17 14 9 7 7 7 5 2 0 1 4 6 7 6 3 5 2 3 4 6 7 8 8 9 8 6 6 6 8 10 6 2 2 2 2 2 2 4 1 1 4 5 5 7 6 6 9 8 3 5 10 5 7 13 10 8 7 13 15 10 8 8 9 10 9 9 6 8 11 10
4 3 4 4 5 6 7 8 9 10 11 12 13 14 16 17 18 17 14 10 8 7 7 5 2 1 0 3 5 6 5 5 3 7 3 4 5 7 8 8 8 10 9 8 8 5 7 8 4 1 2 2 0 2 4 4 3 2 6 9 8 9 8 6 9 10 5 6 10 7 10 9 7 11 8 12 15 6 6 7 9 9 8 9 8 9 9 9
3 2 3 4 6 6 7 8 9 11 12 14 16 17 18 18 17 13 9 7 6 6 4 1 1 1 2 3 4 4 4 3 5 6 5 5 5 7 7 8 9 11 11 10 7 2 2 3 1 1 2 2 4 5 4 2 7 5 5 10 9 9 10 7 8 9 4 8 11 8 8 7 12 12 8 14 14 7 8 8 9 9 10 12 11 12 10 10
2 3 4 5 6 7 7 8 10 12 14 16 17 18 17 15 11 7 6 5 5 3 1 1 1 1 2 2 3 4 4 1 7 7 6 6 6 6 6 8 10 11 10 9 6 4 3 4 3 2 3 3 5 6 3 7 12 10 5 7 10 10 12 10 10 8 6 11 10 9 11 8 14 12 6 11 9 7 10 8 11 12 13 15 13 13 12 11
3 3 4 6 7 6 7 8 11 13 15 16 16 15 13 9 6 6 5 3 2 1 2 2 2 3 3 1 2 4 2 3 8 9 7 6 6 5 6 10 11 12 11 11 10 5 2 4 6 3 3 5 6 5 10 12 10 11 8 8 9 10 12 12 11 11 11 11 10 15 15 9 12 11 8 9 8 5 10 10 11 12 12 13 12 11 10 9
3 4 6 7 7 6 8 10 12 14 15 15 14 12 8 7 7 6 4 1 2 3 4 3 2 3 3 1 3 3 2 6 9 9 6 5 5 5 9 10 11 13 12 13 13 6 2 3 7 5 6 9 5 7 13 13 7 9 11 10 10 10 12 12 12 13 11 7 11 18 12 7 8 8 9 9 8 8 5 12 10 11 11 10 9 8 7 7
3 5 6 7 6 7 9 11 13 14 14 13 11 9 7 8 7 6 3 1 3 5 4 2 1 2 1 1 4 3 4 9 10 8 5 3 5 8 11 12 12 13 11 11 10 8 6 6 7 5 6 5 4 10 12 12 9 12 14 13 12 11 10 11 12 12 9 4 10 18 10 6 5 4 6 5 2 6 3 13 10 11 11 9 9 7 8 9
4 6 6 6 6 8 10 12 13 14 13 11 10 9 8 8 7 6 4 1 3 5 4 2 0 1 2 2 4 3 7 9 9 7 4 4 8 10 12 13 14 14 12 10 9 13 16 15 11 3 1 3 10 13 11 12 14 15 16 13 11 11 8 9 11 9 8 4 8 19 15 11 9 5 4 3 3 2 7 13 10 11 9 9 9 6 8 9
5 6 6 5 7 9 11 12 14 13 12 11 11 11 9 8 8 7 4 3 4 5 3 0 1 2 3 2 2 6 7 7 8 8 6 7 11 12 14 15 15 16 13 10 12 13 12 8 3 3 2 7 12 11 8 11 17 15 13 11 9 10 7 5 5 4 6 7 7 15 14 10 8 4 4 6 5 5 11 12 10 9 8 8 8 5 7 8
5 6 6 6 8 10 11 12 14 13 12 13 13 12 9 9 9 7 5 5 5 3 2 1 0 2 4 1 4 8 9 6 7 8 9 10 13 14 14 16 17 20 18 15 17 16 9 10 13 7 1 6 9 10 11 11 14 12 7 6 5 6 4 4 4 2 4 7 3 6 6 4 5 4 6 6 5 12 13 11 9 7 7 8 7 6 7 7
4 6 6 7 9 10 11 13 14 13 13 15 14 12 9 10 9 7 6 6 4 3 2 1 1 3 3 1 5 8 11 8 8 12 12 12 15 14 14 18 19 22 22 18 19 15 11 12 13 6 3 4 11 15 16 10 9 9 5 5 3 3 2 5 5 4 3 1 5 5 6 0 3 5 7 6 6 13 11 9 9 6 5 6 5 6 4 4
5 6 7 8 9 11 12 14 15 14 15 16 14 11 10 9 7 7 6 6 5 2 0 1 2 2 2 3 4 8 10 8 13 18 15 14 16 14 16 18 16 18 19 16 13 10 12 13 10 5 4 4 10 12 10 6 4 7 5 4 2 1 1 4 6 4 3 4 9 5 5 1 1 3 6 4 5 12 9 6 6 6 7 5 3 4 3 3
6 6 7 9 10 11 13 15 15 15 16 15 13 12 10 8 7 7 6 6 4 0 1 2 3 2 2 3 2 6 9 10 14 17 16 17 17 16 17 14 9 9 8 4 11 13 14 11 6 3 2 4 7 7 5 4 2 2 5 6 6 5 3 2 6 5 3 4 10 2 5 2 2 4 5 5 5 10 8 6 6 5 6 5 3 3 3 3
6 7 8 9 11 12 14 16 15 16 16 14 14 11 9 9 7 7 7 4 2 1 1 0 1 0 1 3 1 4 10 14 15 14 16 18 19 20 16 6 3 2 1 8 16 14 11 8 3 3 4 4 4 5 5 4 2 2 3 5 7 7 5 2 2 5 5 4 6 3 7 4 5 5 6 6 5 9 7 5 6 4 4 5 4 4 3 3
6 8 9 10 11 14 16 16 16 15 14 15 14 11 9 10 9 8 5 1 1 1 2 3 0 2 2 4 4 6 10 13 14 12 13 16 17 19 12 1 0 2 5 6 9 6 4 4 3 3 4 3 4 5 5 3 5 5 4 6 6 6 6 5 3 3 3 3 1 5 8 6 7 5 6 6 5 7 6 4 4 4 5 4 3 2 1 2
7 8 9 10 13 15 16 16 16 14 14 14 12 10 9 9 7 5 3 4 0 2 3 2 3 2 2 6 7 7 8 12 12 9 12 14 12 11 8 3 0 4 6 2 3 2 2 3 4 2 4 3 2 4 5 5 8 11 8 8 8 6 6 6 5 3 3 5 3 5 7 6 6 5 5 4 4 5 5 4 5 6 5 2 1 1 1 2
8 9 10 11 14 15 16 16 15 14 16 15 12 9 5 4 3 3 3 4 4 5 6 5 5 4 4 4 5 3 6 9 5 5 10 11 6 3 3 1 3 4 3 3 1 3 4 4 2 2 4 4 3 2 5 6 11 13 9 8 9 8 6 5 6 5 5 5 5 5 6 6 5 4 4 3 4 5 6 6 5 4 3 2 3 3 3 3
9 10 10 12 15 15 15 15 15 16 17 17 13 5 1 2 2 3 3 3 6 9 8 10 9 9 8 4 3 4 3 2 2 2 7 6 2 1 3 1 3 2 1 4 2 3 5 4 3 6 7 5 2 5 10 11 12 12 10 9 7 6 5 3 6 6 3 3 4 3 5 6 5 4 4 4 5 5 5 4 3 4 3 2 5 5 5 5
9 10 12 13 15 15 14 15 16 15 14 15 10 1 3 2 1 3 2 3 6 5 7 10 10 9 9 3 3 4 4 3 2 3 4 1 2 1 2 2 4 2 1 4 3 4 5 1 6 6 4 5 6 9 13 12 11 9 7 8 6 5 6 5 3 3 0 1 4 2 4 5 4 3 4 4 4 3 3 3 3 6 5 3 2 5 6 6
10 11 12 13 15 13 13 16 14 11 13 14 8 4 3 4 5 7 3 1 6 5 3 5 5 4 3 1 2 3 4 2 0 3 3 2 3 1 1 1 3 4 3 4 4 3 3 3 7 1 9 11 8 8 11 9 7 6 7 8 7 7 7 3 2 0 3 4 5 5 4 3 3 3 3 3 3 2 3 5 6 5 2 4 2 3 6 7
10 11 12 14 14 12 13 14 9 11 16 12 8 5 4 6 7 8 3 2 3 5 5 5 3 3 1 1 1 3 3 2 2 3 3 2 2 1 1 1 4 5 2 4 6 6 4 5 3 8 11 9 8 7 9 8 4 3 6 8 9 8 7 7 4 4 7 5 4 6 4 3 3 4 3 2 2 3 2 3 4 3 3 3 1 2 5 6
10 11 12 13 13 12 12 7 7 18 15 5 8 13 11 9 8 6 4 2 3 5 4 4 2 0 2 1 0 3 3 0 1 3 1 3 1 2 2 1 4 5 4 6 7 6 5 6 5 11 9 7 8 6 5 7 5 2 2 8 13 13 10 11 10 8 6 1 4 3 4 3 4 3 2 2 3 2 2 1 2 1 3 0 2 2 3 6
9 10 12 12 13 14 9 2 11 21 10 5 16 22 15 10 9 6 4 4 2 5 3 1 1 1 2 1 1 4 6 2 5 3 0 2 2 1 2 2 2 4 5 5 5 3 3 5 7 10 9 7 7 4 2 4 7 3 2 10 15 16 15 13 11 6 4 3 5 2 4 1 4 4 1 2 2 2 2 2 1 1 3 2 3 3 4 5
9 10 11 11 13 14 7 3 13 15 5 9 24 25 17 12 10 6 4 5 3 3 3 2 1 1 3 2 3 5 3 4 5 4 1 2 0 2 3 2 1 2 2 4 4 0 1 6 9 10 8 7 5 3 1 4 8 3 4 13 16 15 14 12 8 4 3 3 1 2 4 3 2 4 1 3 0 2 2 3 3 4 4 4 4 3 4 5
9 10 10 10 13 12 7 7 11 8 7 17 25 24 18 13 9 3 6 4 2 3 2 2 0 1 3 1 5 4 4 3 1 4 4 2 2 4 5 1 3 2 1 6 4 3 1 6 8 9 8 5 3 4 4 6 7 3 6 12 13 12 10 8 5 3 2 4 2 2 2 4 2 4 2 3 1 3 5 6 5 6 5 4 3 3 6 6
10 10 9 9 10 8 9 11 8 8 15 21 23 22 17 12 6 5 5 2 2 2 0 0 1 2 2 3 4 1 1 2 3 4 4 4 4 4 4 1 4 5 4 6 6 3 1 5 8 9 6 4 4 6 7 8 5 4 7 9 8 6 6 5 5 3 4 4 2 5 2 5 1 3 2 2 3 4 6 6 6 7 5 4 3 5 7 6
10 10 9 8 8 6 9 10 8 12 18 21 23 22 14 7 4 6 3 0 2 3 1 0 1 1 2 3 2 2 2 1 2 0 3 4 6 6 3 3 6 6 5 5 4 1 1 1 4 6 5 5 6 4 6 8 8 7 7 7 6 5 4 4 3 3 5 2 4 5 4 4 1 3 4 4 4 6 6 5 7 7 6 6 6 7 7 6
10 10 9 8 7 6 7 7 10 16 18 20 24 18 8 4 4 5 1 3 2 2 2 1 3 1 5 5 1 2 2 2 2 3 3 4 7 7 5 5 6 4 5 5 4 4 5 5 3 4 5 6 6 5 5 7 8 7 5 5 5 4 4 4 4 4 5 1 5 5 5 4 2 4 6 6 5 7 8 6 9 8 6 8 9 9 8 7
11 10 10 8 7 7 6 7 13 17 17 20 19 9 4 4 3 2 2 3 2 2 1 1 2 2 5 5 1 0 1 3 4 5 3 3 5 5 4 3 2 3 3 1 2 5 4 3 2 4 4 6 7 6 4 3 4 5 4 5 5 2 3 2 2 2 2 3 4 5 6 2 1 4 6 8 7 8 9 7 9 7 7 11 12 10 8 7
11 10 10 9 9 9 8 9 13 13 15 18 12 5 6 5 1 2 3 2 1 3 1 1 1 3 5 4 1 1 3 5 4 4 3 3 4 3 3 3 4 4 2 2 2 2 3 5 3 3 1 3 7 7 3 1 1 5 5 4 4 3 2 0 2 1 1 2 2 4 5 1 3 3 5 9 8 9 10 8 7 6 8 12 12 11 9 8
11 10 10 11 10 10 9 9 10 10 13 14 6 5 6 4 2 3 3 3 2 1 1 0 2 4 5 3 2 1 5 5 4 4 4 4 5 4 4 5 5 5 4 3 2 2 2 3 3 1 2 3 4 6 7 6 4 5 4 5 4 4 4 3 3 2 2 2 2 2 3 1 1 3 4 7 7 8 7 4 4 5 8 11 11 11 10 8
10 10 11 12 12 10 7 7 8 7 8 7 6 5 4 1 3 2 1 3 1 1 3 2 3 5 4 3 1 0 4 2 3 6 5 4 3 3 3 4 4 4 4 3 0 1 4 2 6 3 1 3 3 4 5 7 2 3 2 4 1 3 5 3 3 4 4 2 2 2 1 1 2 3 2 3 3 6 4 4 7 9 10 13 11 10 9 7
8 9 10 11 13 10 5 5 5 4 4 6 6 3 2 3 3 2 2 2 0 1 3 5 5 4 3 4 3 4 4 3 2 4 4 3 3 4 3 2 3 4 4 3 1 1 3 2 6 3 3 2 3 2 3 5 2 1 2 2 4 3 8 5 1 1 4 4 1 1 1 1 2 3 3 2 2 5 6 7 9 11 12 13 10 9 8 7
5 6 7 11 13 8 4 4 5 3 2 6 4 1 3 3 3 3 2 2 1 2 4 3 2 2 1 2 3 4 4 3 4 3 2 3 2 4 4 4 3 5 2 3 1 1 4 1 5 1 4 1 2 4 5 2 3 4 2 4 2 3 4 5 3 2 4 3 1 1 3 2 1 1 2 3 5 6 6 7 9 9 10 10 9 10 10 9
2 3 7 12 12 7 5 6 4 1 4 5 1 3 2 3 3 3 1 2 2 4 6 2 0 2 3 2 3 4 4 3 4 3 2 3 1 2 3 3 3 6 5 2 2 0 4 3 6 3 3 2 6 7 5 6 3 4 3 2 3 3 1 2 3 2 2 2 1 2 1 2 2 3 5 6 8 8 6 7 9 8 8 9 9 10 10 8
0 2 5 8 9 8 7 7 4 4 5 3 1 2 2 3 4 2 0 2 3 4 4 0 0 2 3 4 3 3 5 4 2 3 2 2 0 1 2 2 3 7 7 4 4 0 2 5 2 7 2 2 5 5 2 5 5 3 2 4 3 3 3 1 1 3 4 4 1 1 1 2 3 5 8 10 10 9 7 7 8 9 9 10 10 10 9 9
1 1 3 4 9 10 10 7 4 5 3 1 3 2 3 3 4 4 2 3 2 2 2 1 1 3 3 2 4 3 4 4 3 3 2 1 0 2 3 2 3 6 6 6 5 2 3 4 1 6 6 4 2 1 2 2 2 4 4 4 4 2 2 1 1 1 4 5 3 2 1 4 5 4 9 11 9 8 9 7 7 9 10 9 10 11 10 9
2 1 4 4 12 14 10 6 3 2 2 2 2 2 4 2 1 3 3 3 2 1 2 2 2 3 2 3 4 3 3 3 3 3 2 1 2 1 3 1 1 4 4 5 5 3 2 3 3 1 4 4 0 2 1 4 5 4 3 1 1 1 3 4 2 3 2 4 4 5 3 5 5 3 8 10 8 7 8 7 8 9 9 8 9 11 11 10
3 1 3 7 17 14 7 4 1 1 2 3 3 3 4 2 1 1 3 3 3 2 2 3 3 2 2 3 4 3 3 3 3 3 2 1 3 3 3 2 2 2 3 3 2 1 2 4 4 2 1 1 1 3 4 4 5 6 3 1 2 2 4 5 2 1 2 3 2 4 3 4 6 2 6 7 5 6 7 10 10 9 9 9 9 10 10 10
2 2 2 7 13 10 7 3 3 2 2 4 4 5 4 1 1 1 2 3 3 2 3 2 2 2 2 3 4 4 4 3 2 2 2 1 0 2 3 3 4 3 4 2 2 2 2 4 4 2 3 3 4 6 6 6 6 5 3 2 3 2 2 5 4 3 3 3 2 4 2 4 5 1 5 6 5 6 8 11 12 9 8 8 8 8 8 9
2 2 1 2 4 4 6 1 2 2 4 4 4 5 3 2 2 2 1 2 2 2 3 2 1 3 1 2 4 3 4 3 1 1 2 1 1 2 3 4 4 3 2 2 1 1 2 2 4 4 3 5 6 7 7 7 4 2 2 4 3 3 4 3 2 4 4 2 3 5 1 5 6 1 6 7 7 8 9 10 12 11 8 8 8 8 8 7
0 1 2 2 1 3 4 4 4 2 4 4 3 3 3 4 2 3 3 3 2 3 3 1 1 4 3 3 5 5 4 4 2 0 1 1 1 2 3 4 4 4 1 4 3 3 3 2 3 5 3 1 0 2 2 2 2 2 3 4 5 6 5 4 2 4 3 1 3 5 4 3 3 2 7 7 8 9 9 8 8 8 9 8 8 8 8 8
2 0 2 4 4 3 1 2 4 3 3 1 2 2 3 3 1 2 4 4 2 3 4 2 2 6 6 5 6 5 6 5 3 2 1 1 1 2 2 2 2 3 1 2 2 4 4 2 3 6 6 5 5 5 4 3 2 1 2 5 6 6 6 6 5 4 3 2 4 1 5 3 3 2 4 3 4 6 6 6 5 6 8 8 8 8 9 9
2 1 2 0 3 2 2 3 2 1 3 3 1 2 1 2 1 4 4 2 2 3 4 4 5 5 3 4 6 4 4 5 5 3 1 1 1 2 3 2 3 3 3 3 4 4 5 3 2 6 5 6 7 5 3 4 5 4 2 4 5 5 7 7 5 4 5 5 3 3 4 6 1 2 4 3 2 3 4 5 6 6 7 7 8 8 9 8
1 2 3 3 1 1 2 3 3 5 4 2 2 1 1 2 2 2 2 1 2 4 4 3 6 5 2 4 6 2 3 5 5 3 2 2 2 3 5 4 4 5 5 4 4 4 6 1 1 4 2 3 4 3 2 4 4 4 5 6 5 6 8 7 4 5 6 6 4 5 6 7 4 4 6 6 5 5 5 6 5 4 4 6 8 9 9 8
1 1 3 0 1 4 5 4 5 6 5 3 1 1 1 3 3 2 1 2 3 4 5 4 4 5 6 5 6 3 2 3 1 2 0 1 1 1 2 3 5 4 5 4 3 3 5 0 3 3 3 1 2 1 1 4 3 2 2 4 6 7 7 5 3 4 6 6 6 6 7 6 5 6 7 6 4 5 3 0 1 2 4 7 8 7 7 5
1 1 2 3 2 2 3 2 5 6 3 2 2 2 3 5 3 3 2 5 3 2 4 6 4 5 7 6 7 4 3 7 5 2 4 3 2 1 2 2 1 3 5 3 2 3 4 1 3 3 4 3 4 3 1 4 6 4 4 3 6 6 5 4 3 4 7 6 5 7 8 3 4 4 4 2 1 4 4 5 5 3 2 6 5 2 1 2
2 3 1 2 2 4 2 1 5 6 2 1 1 3 2 4 5 3 1 3 6 5 5 8 8 5 5 7 8 3 3 7 7 5 6 7 4 3 3 3 4 2 3 2 1 3 4 0 2 5 4 3 5 2 1 4 8 7 6 3 4 5 4 1 1 4 7 7 6 7 6 3 4 3 3 3 5 6 6 5 5 5 5 6 6 5 5 6
4 2 1 3 1 4 1 1 4 4 3 3 3 3 3 4 5 4 4 3 3 6 7 9 9 5 5 6 4 2 5 7 7 6 5 5 4 4 4 4 6 5 2 1 2 2 3 3 1 4 3 4 6 1 1 5 7 4 3 2 3 3 3 2 2 2 5 7 6 5 4 6 4 5 5 3 5 5 3 3 4 5 7 8 7 7 7 7
Wind_Direction
296 299 307 321 328 322 321 320 310 307 328 341 335 331 328 330 333 334 330 322 315 300 286 277 272 280 292 312 315 321 329 310 278 279 278 269 258 256 253 236 254 276 262 265 287 333 342 342 13 12 222 196 144 216 274 170 107 78 138 120 65 45 145 244 143 127 135 254 338 42 344 92 108 97 105 73 60 73 74 68 69 69 72 92 119 136 141 141
296 302 318 326 320 318 324 316 312 327 343 339 331 328 327 332 331 327 320 306 292 280 275 277 282 289 292 320 321 327 326 311 305 292 276 260 214 217 220 207 203 239 241 256 288 343 3 341 15 20 41 148 211 185 134 221 144 135 156 95 85 112 141 314 110 105 106 157 70 40 318 16 91 97 105 84 71 77 80 78 82 84 83 95 118 134 141 143
295 310 322 317 317 326 324 318 328 340 339 331 325 324 323 322 316 311 302 289 279 275 276 276 272 270 283 330 304 318 325 336 349 305 284 209 179 192 198 197 196 205 224 245 292 320 338 316 353 15 36 183 238 145 145 236 168 172 107 82 129 131 114 110 118 110 129 129 95 68 288 63 62 64 95 97 90 76 85 97 96 100 109 106 108 118 124 126
295 313 317 318 330 328 323 330 341 337 328 321 318 318 314 310 306 298 285 277 274 271 267 261 259 260 61 278 275 313 341 27 14 290 250 160 171 176 191 198 201 211 227 241 275 294 304 314 337 42 124 243 288 82 191 225 149 186 110 121 159 130 107 123 128 118 124 104 101 115 78 66 51 48 76 102 92 71 87 105 107 116 122 117 109 102 105 105
296 314 324 334 334 324 330 341 338 326 319 317 315 313 310 304 295 282 273 273 270 263 256 256 259 73 26 276 293 319 9 57 289 267 205 167 173 178 197 204 211 225 234 246 258 281 299 300 323 38 148 219 289 93 233 221 113 52 107 129 141 128 112 116 113 109 130 111 99 91 74 79 67 50 40 85 91 95 111 106 112 119 119 116 111 104 99 93
297 331 344 337 324 326 337 338 327 321 319 318 315 310 304 293 279 271 273 276 264 252 247 259 101 91 272 278 318 342 58 89 243 238 179 165 180 192 202 210 223 235 238 249 250 241 270 232 183 193 180 205 203 193 230 161 116 95 107 124 123 119 114 113 100 98 124 100 94 92 86 97 88 67 34 70 84 106 114 113 112 105 105 104 95 86 68 49
328 356 346 325 321 330 332 326 321 323 322 317 311 303 292 280 274 279 289 279 260 245 219 98 142 263 280 272 345 26 78 214 231 206 178 173 194 205 214 226 231 236 238 238 219 182 194 201 201 191 172 211 227 215 149 106 117 113 110 115 112 110 107 108 100 93 91 89 95 98 87 76 83 83 48 61 68 91 103 107 106 101 98 94 84 79 74 63
3 357 333 321 320 323 317 319 324 327 321 312 303 293 284 286 300 303 299 284 258 201 173 184 205 288 306 297 26 29 19 240 207 187 176 178 197 207 227 240 237 236 238 236 219 183 171 226 226 182 169 216 215 175 121 105 101 106 113 110 104 103 105 106 103 100 95 97 103 90 82 75 85 91 65 43 17 43 95 97 97 97 89 86 86 96 104 106
11 340 327 319 311 309 314 324 328 325 317 309 300 292 295 312 320 313 311 283 207 183 203 224 256 302 318 304 83 43 273 191 168 164 163 176 203 220 233 242 240 232 236 248 237 211 184 214 220 190 194 219 191 141 122 108 102 117 121 109 102 103 106 108 105 108 106 110 106 91 86 90 94 88 63 42 359 330 77 94 90 88 82 81 87 94 93 87
351 333 325 308 302 313 323 327 325 322 318 312 306 308 321 326 324 317 306 234 187 197 227 247 279 316 10 42 89 77 227 188 165 160 165 200 224 242 254 258 249 235 237 248 228 204 216 223 233 214 199 226 131 125 119 112 125 128 118 109 112 111 107 110 109 114 107 87 98 94 83 54 36 57 68 60 339 288 90 91 82 82 81 85 90 83 79 78
339 331 311 296 311 323 327 326 324 326 323 319 323 332 337 332 323 305 284 250 207 223 252 253 306 47 90 83 100 161 212 198 193 186 194 237 233 255 284 284 265 248 245 254 238 219 226 233 239 234 96 43 89 106 109 115 121 115 108 106 111 102 97 108 115 125 105 80 100 96 80 43 19 31 52 340 304 262 98 86 75 81 79 79 87 86 82 77
336 317 293 303 324 325 326 327 328 329 327 334 344 346 343 331 310 286 273 262 245 248 266 309 70 100 102 74 176 197 193 204 225 212 221 249 251 274 298 297 284 269 255 254 271 261 247 259 327 19 66 94 98 96 93 110 109 102 100 106 102 92 92 89 101 138 122 138 134 92 71 31 18 19 8 332 339 65 78 68 54 63 70 71 75 74 77 78
324 295 294 320 324 324 328 329 329 329 337 351 355 352 341 316 292 277 270 263 266 288 333 6 249 124 94 77 213 193 180 207 239 226 240 257 266 283 291 290 286 279 267 251 274 302 339 17 36 37 69 117 114 107 103 99 94 91 86 98 84 68 61 17 38 20 114 158 211 71 74 9 5 6 2 348 38 79 77 71 60 41 41 54 58 61 63 65
299 288 310 325 321 324 328 328 327 332 351 1 359 351 325 298 284 281 289 294 312 349 353 307 202 126 100 249 232 198 186 201 226 233 244 244 254 274 281 281 282 277 273 269 284 318 8 25 42 47 342 79 114 118 117 112 100 105 90 74 58 36 360 358 35 37 37 297 322 62 113 279 335 356 7 1 67 95 97 101 104 92 68 52 51 68 66 64
287 301 322 320 317 322 325 323 325 343 3 4 356 338 309 289 285 300 316 324 339 358 291 200 179 133 49 314 259 204 197 211 226 230 232 225 229 253 272 276 286 284 274 278 306 351 21 20 42 67 327 32 102 117 125 124 123 131 111 88 94 153 251 351 25 47 62 319 327 48 112 214 301 3 8 7 76 99 103 103 102 97 93 78 57 78 77 72
296 315 319 313 316 320 319 319 330 357 7 360 346 326 303 287 289 302 307 319 337 335 133 120 166 148 58 327 261 198 210 224 230 227 225 227 224 237 264 275 302 308 275 316 25 31 25 23 47 81 13 38 87 106 104 67 46 118 115 143 169 171 192 352 4 358 47 339 317 355 138 167 79 30 12 17 74 98 99 90 73 58 69 65 35 42 58 69
309 315 310 310 313 314 314 320 343 4 5 353 336 316 294 285 282 286 291 308 331 225 193 197 225 119 332 309 301 204 218 220 228 230 224 231 234 240 255 280 337 342 109 37 33 29 20 28 43 21 39 72 90 92 78 63 77 81 83 130 159 152 148 138 350 334 26 23 318 63 108 103 70 48 26 21 62 93 90 81 75 58 54 53 36 21 26 56
310 305 304 307 308 310 313 328 354 4 355 344 329 310 292 288 283 280 283 292 4 328 289 268 348 54 305 273 244 224 223 216 223 232 227 227 230 237 246 255 54 94 75 19 12 23 13 16 52 40 11 38 74 87 98 150 157 150 133 120 137 132 124 135 172 277 34 60 298 94 94 90 80 60 35 22 37 78 86 87 81 63 52 52 42 8 341 64
302 298 300 303 306 308 316 339 359 355 342 336 326 313 300 291 287 272 205 149 92 326 292 239 144 125 229 229 227 227 217 206 209 215 214 215 216 230 251 274 250 83 77 36 327 358 56 21 29 41 334 343 73 110 142 175 150 143 139 125 133 122 115 138 157 201 126 90 51 80 94 92 80 59 41 27 34 68 78 67 59 50 46 66 76 337 231 94
293 294 298 302 304 308 324 348 354 342 337 331 326 329 314 298 332 311 203 174 206 227 246 231 190 220 260 241 219 204 195 196 206 207 201 207 207 235 268 275 33 41 86 131 300 320 83 64 355 244 245 249 235 143 126 124 118 120 112 107 119 114 118 146 146 174 168 105 40 38 82 80 65 54 30 28 50 53 57 64 69 62 46 94 116 126 136 112
289 294 299 303 304 313 335 349 343 340 340 330 329 342 233 227 4 327 272 258 235 205 221 245 234 235 250 245 181 151 150 178 319 259 207 202 169 9 301 160 90 17 167 123 81 347 55 66 282 241 221 230 222 110 103 101 104 109 111 108 101 100 106 111 131 161 204 108 69 47 80 63 46 48 20 28 57 38 39 74 105 84 56 89 120 119 110 97
288 294 301 303 307 321 342 346 338 342 346 338 336 316 241 276 11 337 336 315 288 223 209 250 252 247 242 206 124 109 78 51 348 268 224 169 89 39 315 88 125 169 26 68 65 6 36 45 274 253 165 98 76 94 99 103 107 107 112 109 98 105 94 49 67 140 257 91 107 99 84 58 34 60 43 33 56 36 18 33 61 56 24 3 93 102 92 82
287 295 304 305 311 330 346 340 339 349 347 337 323 256 286 353 3 346 7 62 302 292 261 252 226 233 264 54 61 61 72 93 224 281 272 32 39 170 191 43 112 124 49 66 110 71 46 293 294 6 105 96 81 84 94 98 98 103 118 114 119 145 128 98 276 138 46 68 120 123 94 53 18 41 55 55 74 73 34 28 54 65 340 301 326 73 95 92
287 299 304 306 319 341 345 340 350 350 339 329 310 300 350 10 359 355 27 118 299 293 278 267 220 183 201 344 5 73 92 164 176 271 294 66 34 317 112 38 87 97 104 121 110 85 44 323 347 74 88 95 88 78 92 98 76 84 124 127 137 153 140 131 143 100 61 57 127 120 74 360 354 7 349 12 57 82 72 61 87 118 245 265 7 65 113 119
290 301 303 313 331 343 343 352 4 348 346 4 349 346 3 11 358 6 42 63 321 299 279 283 323 108 185 181 224 126 107 23 214 242 272 106 136 342 19 20 93 105 143 127 94 71 30 351 51 80 79 85 88 87 101 115 109 67 97 131 139 139 128 123 123 109 83 79 223 131 69 315 320 352 332 3 12 45 70 91 120 156 263 199 109 155 146 125
291 297 304 322 336 344 352 24 357 356 11 38 353 349 354 360 356 2 47 61 343 299 298 324 39 310 276 143 140 80 60 327 263 260 45 121 154 108 46 341 64 127 156 127 91 75 18 12 66 86 90 84 80 84 78 109 108 79 101 124 130 131 130 137 138 127 128 186 226 156 111 236 311 316 251 82 349 348 34 311 294 253 253 193 175 199 154 122
286 293 306 324 338 353 12 341 352 9 34 339 343 347 344 339 343 355 64 51 340 276 282 292 102 220 248 186 124 87 75 263 286 346 25 149 113 73 68 355 41 137 177 101 72 302 29 50 68 79 81 74 69 80 86 106 100 111 153 126 126 131 136 150 146 130 159 159 66 51 107 116 313 283 181 111 294 298 274 257 250 238 231 200 198 186 138 131
280 290 305 323 340 360 14 347 353 15 360 338 340 343 337 326 329 21 88 71 287 265 283 273 235 213 250 42 82 117 194 210 52 315 275 140 67 57 59 10 147 120 26 97 110 246 169 86 91 89 80 74 91 129 133 101 97 161 161 126 130 136 139 146 122 89 105 103 56 316 87 94 293 283 64 88 242 262 251 242 235 231 217 197 201 156 130 128
276 287 301 321 337 354 359 351 357 358 347 345 342 339 331 324 345 65 80 81 258 270 311 13 330 254 262 38 56 139 225 92 128 263 303 51 52 65 86 181 114 78 24 88 132 200 157 128 127 109 101 124 136 133 120 101 106 156 129 113 117 116 115 115 105 88 60 77 201 242 137 100 282 270 121 159 227 231 236 235 234 229 203 188 178 138 136 128
274 283 296 317 331 342 345 345 357 352 346 346 341 336 331 333 40 66 47 82 222 256 251 13 280 223 114 76 354 332 53 73 178 299 1 31 21 23 72 81 77 74 22 41 95 149 53 105 120 110 126 151 141 113 106 117 127 122 102 92 79 55 48 67 77 87 70 24 245 220 176 127 146 248 194 192 210 199 200 213 224 216 180 169 156 141 145 133
271 279 289 306 319 331 339 342 349 348 346 345 341 340 351 19 66 79 95 229 231 286 309 259 261 66 105 121 77 352 43 350 349 58 28 11 22 17 30 44 47 49 26 22 15 3 8 7 39 113 135 130 111 73 80 112 115 102 91 92 84 32 12 24 4 37 87 257 259 205 177 121 107 232 211 209 215 183 179 197 209 202 163 153 151 146 148 139
268 273 281 293 299 306 308 319 336 343 345 343 344 357 55 46 29 99 224 271 277 271 293 239 270 49 97 112 81 313 71 10 18 71 78 51 49 48 66 77 90 64 31 3 358 3 355 341 46 116 122 113 108 86 64 51 63 86 99 92 88 49 16 23 340 8 114 241 250 172 150 110 227 235 197 193 201 178 182 203 202 188 147 144 149 147 149 148
261 265 276 283 285 290 292 310 331 339 340 342 353 43 78 72 19 245 254 295 225 224 238 87 18 47 79 79 41 318 57 37 26 59 80 89 65 44 63 77 102 108 110 153 113 32 337 319 360 74 55 119 122 120 125 251 119 133 143 122 109 113 92 75 262 332 143 225 238 139 112 61 290 286 185 177 184 180 189 206 201 178 141 143 148 147 152 152
259 264 271 276 277 278 283 309 324 326 333 348 26 64 55 77 236 257 273 274 232 242 317 99 63 43 48 76 178 161 61 40 34 58 37 42 44 6 1 12 33 92 99 82 119 141 94 325 310 114 189 172 142 159 167 166 164 181 175 130 129 154 142 169 199 174 162 199 300 28 61 129 235 278 209 169 169 177 184 197 170 138 133 143 147 147 151 149
260 265 269 275 274 269 276 304 315 318 336 8 61 63 67 163 252 256 261 278 282 360 343 357 82 69 12 350 282 139 100 80 44 65 44 44 55 352 342 345 359 74 89 68 327 123 102 232 257 255 205 136 148 202 156 118 127 234 161 98 168 198 140 130 169 162 152 121 5 8 18 203 203 285 344 90 159 170 134 107 117 121 133 142 146 149 148 149
260 270 273 272 267 264 273 291 295 312 360 58 65 51 160 210 230 178 241 293 6 22 5 10 46 74 357 329 332 354 72 96 58 59 38 58 65 352 336 311 343 53 99 120 167 37 88 273 275 327 16 102 168 227 101 112 155 227 114 162 239 174 120 114 114 75 88 88 17 9 68 338 2 355 9 39 204 166 122 121 128 130 134 136 141 147 148 157
256 278 281 270 262 254 243 261 271 287 41 76 78 237 223 233 210 188 278 341 69 61 67 48 22 87 87 340 334 341 36 44 29 55 36 34 26 329 325 307 348 36 77 137 152 201 125 230 286 38 73 337 338 43 50 77 120 108 156 225 235 67 82 102 105 31 56 91 279 45 124 163 78 334 239 200 202 176 148 149 142 134 133 131 140 150 154 161
250 305 290 267 249 218 210 237 237 136 76 70 52 255 245 263 234 199 293 358 42 51 72 103 268 95 116 89 4 351 55 47 11 60 68 25 349 301 337 311 333 6 353 70 97 75 111 106 294 306 104 352 1 47 34 338 15 116 181 228 89 89 6 39 112 151 113 119 281 6 91 189 173 197 197 189 198 188 174 169 150 139 137 133 142 152 153 155
268 358 302 251 205 178 190 200 179 86 62 60 255 263 252 259 272 255 224 47 59 61 62 119 225 51 70 105 90 31 64 80 44 76 89 50 322 281 22 334 319 345 352 43 94 357 86 106 288 303 331 26 14 45 42 321 337 30 39 9 41 132 156 145 143 153 133 135 163 76 330 262 223 200 183 188 199 185 180 185 155 143 145 141 147 154 155 162
157 40 297 224 176 177 174 153 102 63 67 177 203 226 260 255 277 296 351 69 83 85 66 16 63 68 45 71 106 87 65 69 69 75 73 69 65 312 332 9 340 339 5 45 68 57 46 85 140 299 333 31 26 325 176 173 18 24 33 13 346 356 72 88 64 70 121 134 144 138 194 264 254 199 177 190 197 179 180 179 144 144 151 148 150 157 165 172
110 66 287 195 165 172 157 110 54 79 133 237 221 236 274 262 249 302 342 69 98 138 131 118 87 96 90 57 77 95 71 53 55 71 61 59 108 264 293 342 14 334 12 40 32 39 67 87 111 340 6 53 46 283 172 138 117 111 107 53 332 18 71 81 28 334 81 119 145 143 151 262 265 196 179 189 182 174 175 153 137 151 155 153 158 164 171 174
89 87 280 153 157 163 127 67 323 162 174 241 236 246 263 261 197 312 335 37 67 47 81 90 73 80 97 85 81 88 89 70 42 69 106 167 144 180 273 349 68 48 68 68 336 340 110 99 89 66 47 124 321 3 51 77 87 99 94 91 126 95 91 114 137 304 39 57 95 110 109 262 267 200 173 179 160 157 155 140 142 158 162 167 174 171 170 173
116 230 277 146 161 154 98 42 303 335 274 243 256 268 260 257 96 87 5 29 54 44 41 43 55 72 80 93 92 94 100 81 46 108 155 197 202 252 293 17 66 72 70 66 304 337 66 77 77 42 321 311 333 360 19 23 47 70 25 18 87 64 102 139 154 145 74 28 71 84 65 266 284 307 146 146 123 130 143 145 150 163 175 180 178 174 173 174
197 246 275 156 177 134 104 156 250 287 283 291 302 288 301 23 81 123 88 50 60 62 57 20 28 67 70 93 90 111 126 100 52 132 144 139 280 310 5 55 78 78 80 163 178 64 65 86 88 70 5 348 348 351 358 1 20 71 355 359 45 56 71 84 82 85 62 29 127 113 145 250 281 347 127 135 127 137 156 160 160 167 178 183 179 180 181 175
23 316 304 307 339 94 131 186 160 174 284 322 315 291 11 30 60 106 94 81 80 93 95 320 23 67 47 52 64 60 81 102 130 254 45 88 279 323 26 66 88 89 165 207 176 89 98 124 109 113 123 136 219 294 296 311 332 350 347 6 33 45 59 81 77 66 65 37 85 112 168 237 309 64 125 142 143 150 168 174 173 175 177 183 183 181 183 182
77 350 309 329 358 57 153 214 120 130 266 309 327 322 63 75 15 39 62 69 62 83 83 343 11 54 39 54 75 50 43 72 101 99 64 74 322 302 320 22 70 96 159 190 110 78 84 69 95 129 151 175 183 216 221 160 104 51 2 27 45 54 65 91 95 87 133 113 46 130 172 108 21 67 121 140 152 166 189 194 193 190 181 184 184 180 187 192
103 190 196 289 343 355 310 311 82 161 231 156 148 292 95 119 4 5 28 65 97 79 66 15 26 51 41 69 83 51 25 47 57 59 51 37 11 321 327 355 24 39 59 57 50 76 86 43 78 128 158 195 189 207 219 123 128 172 160 72 70 73 71 79 99 135 140 99 49 249 158 106 141 190 131 140 166 174 213 223 217 209 193 186 183 185 194 197
140 223 205 168 156 227 234 250 206 208 232 190 159 289 16 89 98 69 10 3 53 68 79 33 22 47 101 110 103 76 18 36 31 21 26 28 34 9 355 344 349 20 49 39 17 86 104 88 183 131 135 225 204 192 120 111 136 166 152 136 122 108 100 100 131 163 139 120 174 201 131 126 191 196 156 173 179 174 209 233 222 196 179 181 181 186 198 204
129 295 278 284 113 200 206 200 168 175 206 199 119 9 148 138 144 179 165 52 10 23 90 95 20 44 67 81 103 105 87 95 43 307 197 63 58 96 30 332 323 3 56 55 8 87 101 242 240 118 85 319 273 267 96 106 121 96 106 147 141 129 124 116 130 146 112 116 160 156 125 148 209 203 194 213 200 174 180 349 57 109 163 192 194 193 202 206
99 192 303 357 356 247 222 158 122 134 173 136 93 285 204 153 173 216 154 115 115 8 78 112 121 88 71 70 87 92 175 167 157 177 158 119 68 143 165 199 253 3 39 52 4 56 83 223 240 93 75 328 312 314 24 83 106 85 36 80 114 105 93 84 103 110 91 97 136 125 121 175 243 201 191 240 116 120 87 63 49 38 144 175 173 164 149 122
286 228 186 69 320 306 313 102 110 121 145 100 138 246 211 169 190 188 111 122 147 149 136 137 131 97 59 63 75 65 225 174 162 177 169 151 141 154 168 168 152 107 20 28 23 42 71 144 321 64 81 287 288 268 309 55 80 62 21 39 100 98 100 118 155 138 129 135 132 107 117 203 237 143 96 48 79 94 85 85 73 47 64 105 111 100 98 111
328 275 112 112 237 300 318 93 79 106 176 198 193 211 198 206 204 135 81 12 85 124 140 141 128 101 69 65 77 205 207 180 184 200 185 171 164 139 130 145 142 141 161 124 56 44 94 101 36 80 111 274 284 238 42 38 53 25 315 207 148 112 117 110 51 112 143 143 137 137 173 211 197 124 101 67 73 89 96 100 95 85 77 79 87 95 109 127